DW6725 Weather Reports


time (UTC)temp
C
wind
direction
speed
KPH
gust
KPH
rain 1hr
cm
rain 24hr
cm
rain mn
cm
humidity
%
barometer
mb
20260504050004 12 360 6.4 25.7 0.00 0.00 0.00 46 1009.0
20260504045215 12 360 6.4 25.7 0.00 0.00 0.00 47 1008.9
20260504044005 12 360 4.8 16.1 0.00 0.00 0.00 48 1009.0
20260504043006 11 360 3.2 11.3 0.00 0.00 0.00 50 1009.0
20260504042215 11 360 4.8 14.5 0.00 0.00 0.00 52 1009.1
20260504041005 11 360 6.4 9.7 0.00 0.00 0.00 53 1009.0
20260504040007 12 360 4.8 17.7 0.00 0.00 0.00 51 1009.3
20260504035214 11 360 4.8 16.1 0.00 0.00 0.00 53 1009.1
20260504034214 11 360 3.2 16.1 0.00 0.00 0.00 54 1009.2
20260504033005 11 360 3.2 17.7 0.00 0.00 0.00 55 1009.4
20260504032003 11 360 3.2 9.7 0.00 0.00 0.00 56 1009.6
20260504031214 11 360 3.2 11.3 0.00 0.00 0.00 57 1009.5
20260504030006 11 360 1.6 6.4 0.00 0.00 0.00 59 1009.5
20260504025006 10 360 1.6 9.7 0.00 0.00 0.00 61 1009.6
20260504024003 10 360 1.6 9.7 0.00 0.00 0.00 62 1009.6
20260504023005 10 360 1.6 11.3 0.00 0.00 0.00 62 1009.9
20260504022004 10 360 3.2 12.9 0.00 0.00 0.00 65 1010.0
20260504021004 10 360 4.8 17.7 0.00 0.00 0.00 66 1010.2
20260504020003 10 360 4.8 24.1 0.00 0.00 0.00 66 1010.2
20260504015214 10 360 6.4 29.0 0.00 0.00 0.00 65 1010.3
20260504014213 11 360 11.3 35.4 0.00 0.00 0.00 58 1010.7
20260504013004 12 360 8.0 24.1 0.00 0.00 0.00 52 1010.5
20260504012213 12 360 6.4 19.3 0.00 0.00 0.00 48 1010.3
20260504011003 12 360 9.7 32.2 0.00 0.00 0.00 46 1009.8
20260504010003 12 360 12.9 41.8 0.00 0.00 0.00 44 1009.8
20260504005215 12 360 12.9 32.2 0.00 0.00 0.00 43 1009.9
20260504004004 12 360 11.3 35.4 0.00 0.00 0.00 42 1009.5
20260504003004 12 360 8.0 27.4 0.00 0.00 0.00 40 1009.5
20260504002003 12 360 4.8 20.9 0.00 0.00 0.00 40 1009.3
20260504001004 12 360 3.2 11.3 0.00 0.00 0.00 41 1009.3
20260504000003 12 360 3.2 16.1 0.00 0.00 0.00 42 1009.1
20260503235005 12 360 1.6 9.7 0.00 0.00 0.00 43 1009.0
20260503234004 12 360 4.8 17.7 0.00 0.00 0.00 43 1009.1
20260503233215 12 360 6.4 17.7 0.00 0.00 0.00 43 1009.5
20260503232004 12 360 9.7 27.4 0.00 0.00 0.00 41 1009.8
20260503231004 12 360 8.0 24.1 0.00 0.00 0.00 39 1009.9
20260503230004 12 360 4.8 14.5 0.00 0.00 0.00 39 1009.9
20260503225005 13 360 4.8 11.3 0.00 0.00 0.00 39 1009.6
20260503224004 13 360 3.2 16.1 0.00 0.00 0.00 38 1009.5
20260503223005 13 360 4.8 14.5 0.00 0.00 0.00 38 1009.5
20260503222007 13 360 4.8 16.1 0.00 0.00 0.00 37 1009.4
20260503221003 13 360 9.7 16.1 0.00 0.00 0.00 37 1009.3
20260503220216 13 360 8.0 19.3 0.00 0.00 0.00 37 1009.3
20260503215006 13 360 6.4 19.3 0.00 0.00 0.00 38 1009.5
20260503214214 13 360 4.8 12.9 0.00 0.00 0.00 38 1009.5
20260503213004 13 360 6.4 16.1 0.00 0.00 0.00 38 1009.6
20260503212214 13 360 4.8 14.5 0.00 0.00 0.00 38 1009.5
20260503211214 13 360 6.4 19.3 0.00 0.00 0.00 38 1009.6
20260503210216 13 360 6.4 20.9 0.00 0.00 0.00 39 1009.7
20260503205003 13 360 8.0 22.5 0.00 0.00 0.00 39 1009.6
20260503204004 13 360 6.4 16.1 0.00 0.00 0.00 40 1009.9
20260503203003 13 360 4.8 14.5 0.00 0.00 0.00 40 1010.0
20260503202003 13 360 8.0 16.1 0.00 0.00 0.00 39 1009.9
20260503201003 13 360 8.0 16.1 0.00 0.00 0.00 39 1010.2
20260503200004 13 360 6.4 16.1 0.00 0.00 0.00 39 1010.4
20260503195005 12 360 6.4 22.5 0.00 0.00 0.00 37 1010.3
20260503194003 13 360 8.0 22.5 0.00 0.00 0.00 38 1010.5
20260503193003 13 360 6.4 22.5 0.00 0.00 0.00 38 1010.6
20260503192003 12 360 8.0 24.1 0.00 0.00 0.00 35 1010.6
20260503191004 13 360 8.0 25.7 0.00 0.00 0.00 37 1010.6
20260503190004 14 360 6.4 20.9 0.00 0.00 0.00 37 1010.7
20260503185003 13 360 9.7 29.0 0.00 0.00 0.00 36 1010.7
20260503184004 13 360 9.7 27.4 0.00 0.00 0.00 37 1010.8
20260503183003 13 360 8.0 24.1 0.00 0.00 0.00 33 1011.1
20260503182003 14 360 9.7 27.4 0.00 0.00 0.00 32 1011.2
20260503181005 13 360 12.9 22.5 0.00 0.00 0.00 34 1011.0
20260503180004 12 360 9.7 25.7 0.00 0.00 0.00 33 1011.3
20260503175004 12 360 11.3 25.7 0.00 0.00 0.00 33 1011.3
20260503174214 13 360 8.0 22.5 0.00 0.00 0.00 35 1011.5
20260503173004 12 360 8.0 20.9 0.00 0.00 0.00 33 1011.6
20260503172005 11 360 8.0 22.5 0.00 0.00 0.00 34 1011.7
20260503171005 11 360 6.4 20.9 0.00 0.00 0.00 34 1011.9
20260503170214 11 360 4.8 25.7 0.00 0.00 0.00 34 1011.9
20260503151005 9 360 6.4 16.1 0.00 0.00 0.00 38 1013.3
20260503150216 9 360 6.4 16.1 0.00 0.00 0.00 38 1013.5
20260503140215 7 360 8.0 20.9 0.00 0.00 0.00 47 1013.6
20260503131004 7 360 6.4 14.5 0.00 0.00 0.00 55 1013.8
20260503120214 6 360 6.4 16.1 0.00 0.00 0.00 64 1013.6
20260503081003 3 360 1.6 4.8 0.00 0.00 0.00 78 1013.1